FW6884 Weather Reports


time (UTC)temp
C
wind
direction
speed
KPH
gust
KPH
rain 1hr
cm
rain 24hr
cm
rain mn
cm
humidity
%
barometer
mb
20260507091524 12 360 0.0 6.4 0.00 0.00 0.00 38 1017.8
20260507090022 12 360 0.0 4.8 0.00 0.00 0.00 39 1018.1
20260507084520 12 360 0.0 8.0 0.00 0.00 0.00 41 1018.2
20260507083026 11 360 0.0 1.6 0.00 0.00 0.00 42 1018.3
20260507081528 11 360 0.0 3.2 0.00 0.00 0.00 43 1018.3
20260507080020 11 360 0.0 6.4 0.00 0.00 0.00 46 1018.4
20260507074516 11 360 0.0 9.7 0.00 0.00 0.00 52 1018.4
20260507073012 11 360 3.2 8.0 0.00 0.00 0.00 51 1018.6
20260507071510 11 360 3.2 8.0 0.00 0.00 0.00 47 1018.8
20260507070010 12 360 4.8 8.0 0.00 0.00 0.00 46 1019.0
20260507064505 12 360 0.0 6.4 0.00 0.00 0.00 38 1018.9
20260507063004 12 360 1.6 16.1 0.00 0.00 0.00 38 1019.0
20260507061506 12 360 0.0 6.4 0.00 0.00 0.00 41 1019.0
20260507060004 11 360 1.6 8.0 0.00 0.00 0.00 43 1019.3
20260507054610 9 360 1.6 4.8 0.00 0.00 0.00 61 1019.3
20260507053101 9 360 0.0 4.8 0.00 0.00 0.00 64 1019.3
20260507051600 9 360 0.0 3.2 0.00 0.00 0.00 65 1019.5
20260507044558 9 360 1.6 4.8 0.00 0.00 0.00 65 1019.4
20260507043102 10 360 0.0 0.0 0.00 0.00 0.00 64 1019.2
20260507041608 10 360 0.0 0.0 0.00 0.00 0.00 63 1019.2
20260507040059 10 360 0.0 0.0 0.00 0.00 0.00 62 1019.2
20260507034605 10 360 0.0 4.8 0.00 0.00 0.00 62 1019.1
20260507033056 10 360 0.0 4.8 0.00 0.00 0.00 64 1018.9
20260507031558 10 360 0.0 3.2 0.00 0.00 0.00 67 1018.8
20260507024553 10 360 3.2 6.4 0.00 0.00 0.00 74 1018.7
20260507023109 10 360 1.6 6.4 0.00 0.00 0.00 72 1018.7
20260507021555 11 360 1.6 9.7 0.00 0.00 0.00 70 1018.6
20260507020053 11 123 0.0 14.5 0.00 0.00 0.00 67 1018.8
20260507014605 12 121 4.8 11.3 0.00 0.00 0.00 65 1018.8
20260507013110 12 69 6.4 14.5 0.00 0.00 0.00 61 1018.8
20260507011550 13 141 3.2 17.7 0.00 0.00 0.00 60 1018.9
20260507010050 13 103 8.0 16.1 0.00 0.00 0.00 58 1018.8
20260507004550 14 86 0.0 14.5 0.00 0.00 0.00 59 1018.8
20260507003048 14 155 1.6 14.5 0.00 0.00 0.00 59 1018.9
20260507001607 13 118 8.0 16.1 0.00 0.00 0.00 59 1019.0
20260507000049 14 118 4.8 14.5 0.00 0.00 0.00 57 1019.0
20260506234547 14 113 6.4 19.3 0.00 0.00 0.00 58 1018.8
20260506233048 13 124 3.2 19.3 0.00 0.00 0.00 59 1018.8
20260506231547 13 109 11.3 20.9 0.00 0.00 0.00 57 1018.9
20260506230042 14 164 6.4 16.1 0.00 0.00 0.00 56 1018.9
20260506224542 14 61 8.0 19.3 0.00 0.00 0.00 56 1019.0
20260506223053 14 92 4.8 17.7 0.00 0.00 0.00 57 1019.0
20260506221540 15 130 8.0 14.5 0.00 0.00 0.00 56 1019.3
20260506220040 14 82 3.2 16.1 0.00 0.00 0.00 59 1019.6
20260506214541 13 110 6.4 14.5 0.00 0.00 0.00 59 1019.8
20260506213038 15 97 8.0 17.7 0.00 0.00 0.00 56 1019.9
20260506211534 13 330 4.8 14.5 0.00 0.00 0.00 59 1020.1
20260506210038 14 40 1.6 16.1 0.00 0.00 0.00 61 1020.2
20260506204633 13 349 1.6 14.5 0.00 0.00 0.00 60 1020.3
20260506203040 13 131 3.2 14.5 0.00 0.00 0.00 62 1020.5
20260506201529 13 166 1.6 17.7 0.00 0.00 0.00 60 1020.3
20260506200028 13 144 6.4 17.7 0.00 0.00 0.00 63 1020.7
20260506194527 12 192 1.6 9.7 0.00 0.00 0.00 63 1020.8
20260506193025 13 125 4.8 11.3 0.00 0.00 0.00 64 1020.6
20260506191523 13 114 3.2 16.1 0.00 0.00 0.00 64 1020.7
20260506190022 13 36 1.6 8.0 0.00 0.00 0.00 62 1020.6
20260506184521 12 196 3.2 9.7 0.00 0.00 0.00 65 1020.8
20260506183022 12 355 3.2 6.4 0.00 0.00 0.00 63 1021.0
20260506181521 12 201 0.0 6.4 0.00 0.00 0.00 64 1021.1
20260506180020 13 124 1.6 8.0 0.00 0.00 0.00 56 1021.1
20260506174510 13 134 3.2 8.0 0.00 0.00 0.00 59 1021.0
20260506173007 13 9 3.2 8.0 0.00 0.00 0.00 54 1021.0
20260506171504 13 281 3.2 8.0 0.00 0.00 0.00 55 1021.0
20260506170100 12 355 1.6 6.4 0.00 0.00 0.00 55 1021.0
20260506164556 12 321 3.2 9.7 0.00 0.00 0.00 56 1021.0
20260506163051 12 348 3.2 8.0 0.00 0.00 0.00 56 1021.1
20260506161554 11 294 3.2 8.0 0.00 0.00 0.00 58 1021.0
20260506160044 11 296 0.0 6.4 0.00 0.00 0.00 60 1021.0
20260506154540 10 299 3.2 6.4 0.00 0.00 0.00 60 1020.9
20260506153038 9 355 0.0 4.8 0.00 0.00 0.00 64 1020.9
20260506151531 7 360 1.6 4.8 0.00 0.00 0.00 65 1021.0
20260506150030 7 360 1.6 3.2 0.00 0.00 0.00 63 1020.9
20260506144526 6 360 0.0 3.2 0.00 0.00 0.00 69 1021.0
20260506143019 5 360 0.0 4.8 0.00 0.00 0.00 73 1020.8
20260506141515 5 360 0.0 0.0 0.00 0.00 0.00 78 1020.7
20260506140012 3 360 0.0 4.8 0.00 0.00 0.00 82 1020.4
20260506134519 3 360 0.0 0.0 0.00 0.00 0.00 82 1020.4
20260506133004 3 360 0.0 0.0 0.00 0.00 0.00 84 1020.1
20260506131503 3 360 0.0 3.2 0.00 0.00 0.00 87 1020.0
20260506130059 2 360 0.0 4.8 0.00 0.00 0.00 88 1019.7
20260506124557 2 360 3.2 4.8 0.00 0.00 0.00 90 1019.6
20260506123056 2 360 1.6 4.8 0.00 0.00 0.00 91 1019.4
20260506121604 1 360 1.6 4.8 0.00 0.00 0.00 93 1019.2
20260506120053 1 360 3.2 4.8 0.00 0.00 0.00 94 1019.3
20260506114554 1 360 1.6 4.8 0.00 0.00 0.00 95 1019.2
20260506113051 1 360 3.2 4.8 0.00 0.00 0.00 95 1019.1
20260506111608 1 360 1.6 4.8 0.00 0.00 0.00 96 1018.9
20260506110052 1 360 0.0 4.8 0.00 0.00 0.00 96 1018.9
20260506104550 1 360 3.2 4.8 0.00 0.00 0.00 96 1018.8
20260506103049 1 360 1.6 6.4 0.00 0.00 0.00 96 1018.8
20260506101548 1 360 3.2 6.4 0.00 0.00 0.00 97 1018.7
20260506100046 1 360 0.0 6.4 0.00 0.00 0.00 96 1018.7
20260506094545 1 360 0.0 8.0 0.00 0.00 0.00 96 1018.7
20260506093051 1 360 3.2 4.8 0.00 0.00 0.00 96 1018.7